Torna al catalogo

FENGYUN 1C DEB

AttivoPO
NORAD 31731·DEBRIS·🇨🇳 China

Lanciato May 10, 1999 da Taiyuan Satellite Launch Center

Loading…

Prossimi Passaggi (prossime 24 ore)

TLE

AggiornatoSource: Space-Track

Epoca: Sep 14, 2026, 04:05 UTC

1 31731U 99025CEE 26257.17082235  .00002975  00000-0  90635-3 0  9999
2 31731  99.2927 334.6592 0010203  17.3183 342.8351 14.42825834997996

Traccia FENGYUN 1C DEB in tempo reale con AllMySat

Download on the App Store